Weather History for KBVO - October, 2013

Change the Weather History Date:

Monday, October 28, 2013

  Actual Average Record
Temperature  
Mean Temperature 52 °F -  
Max Temperature 69 °F 71 °F 86 °F (1966)
Min Temperature 35 °F 44 °F 22 °F (1957)
Degree Days  
Heating Degree Days 14    
Growing Degree Days 2 (Base 50)    
Moisture  
Dew Point 51 °F    
Average Humidity 88    
Maximum Humidity 100    
Minimum Humidity 63    
Precipitation  
Precipitation 0.03 in - - ()
Sea Level Pressure  
Sea Level Pressure 30.08 in    
Wind  
Wind Speed 3 mph (SSE)    
Max Wind Speed 12 mph    
Max Gust Speed 17 mph    
Visibility 6 miles    
Events Fog , Rain , Thunderstorm    
Averages and records for this station are not official NWS values.
T = Trace of Precipitation, MM = Missing Value Source: NWS Daily Summary

Daily Weather History Graph

Daily Weather History Graph

Search for Another Location

Airport or City:

Trip Planner

Search our weather history database for the weather conditions in past years. The results will help you decide how hot, cold, wet, or windy it might be!

Date:

Astronomy

Oct. 28, 2013 Rise Set
Actual Time 7:44 AM CDT 6:31 PM CDT
Civil Twilight 7:17 AM CDT 6:57 PM CDT
Nautical Twilight 6:47 AM CDT 7:28 PM CDT
Astronomical Twilight 6:16 AM CDT 7:58 PM CDT
Moon 1:47 AM CDT (10/28) 3:05 PM CDT (10/28)
Length of Visible Light 11h 40m
Length of Day
10h 46m
Waning Crescent, 34% of the Moon is Illuminated
Oct 28
Waning Crescent
Nov 3
New
Nov 9
First Quarter
Nov 17
Full
Nov 25
Last Quarter

Hourly Weather History & Observations

Time (CDT) Temp. Dew Point Humidity Pressure Visibility Wind Dir Wind Speed Gust Speed Precip Events Conditions
12:53 AM 36.0 °F 35.1 °F 97% 30.01 in 10.0 mi Calm Calm - N/A   Clear
1:53 AM 35.1 °F 35.1 °F 100% 30.01 in 6.0 mi Calm Calm - N/A   Clear
2:53 AM 36.0 °F 35.1 °F 97% 30.03 in 7.0 mi Calm Calm - N/A   Clear
3:12 AM 35.6 °F 35.6 °F 100% 30.04 in 10.0 mi Calm Calm - N/A   Scattered Clouds
3:21 AM 35.6 °F 35.6 °F 100% 30.04 in 10.0 mi Calm Calm - N/A   Mostly Cloudy
3:53 AM 39.9 °F 39.0 °F 97% 30.03 in 9.0 mi Calm Calm - N/A   Overcast
4:15 AM 42.8 °F 42.8 °F 100% 30.04 in 1.8 mi Calm Calm - N/A   Overcast
4:19 AM 42.8 °F 42.8 °F 100% 30.04 in 0.5 mi Calm Calm - N/A Fog Fog
4:28 AM 42.8 °F 42.8 °F 100% 30.04 in 0.2 mi Calm Calm - N/A Fog Fog
4:53 AM 45.0 °F 45.0 °F 100% 30.03 in 0.2 mi Calm Calm - N/A Fog Fog
5:31 AM 50.0 °F 50.0 °F 100% 30.06 in 0.5 mi South 3.5 mph - N/A Fog Fog
5:45 AM 51.8 °F 51.8 °F 100% 30.06 in 0.8 mi SSW 4.6 mph - N/A   Mist
5:53 AM 52.0 °F 52.0 °F 100% 30.05 in 1.2 mi South 5.8 mph - N/A   Overcast
6:04 AM 53.6 °F 53.6 °F 100% 30.07 in 2.5 mi South 5.8 mph - N/A   Overcast
6:11 AM 53.6 °F 53.6 °F 100% 30.07 in 3.0 mi South 5.8 mph - N/A   Overcast
6:41 AM 53.6 °F 53.6 °F 100% 30.08 in 4.0 mi South 3.5 mph - N/A   Overcast
6:53 AM 54.0 °F 54.0 °F 100% 30.07 in 4.0 mi South 3.5 mph - N/A   Overcast
7:22 AM 53.6 °F 53.6 °F 100% 30.09 in 4.0 mi Calm Calm - N/A   Overcast
7:53 AM 54.0 °F 54.0 °F 100% 30.09 in 4.0 mi Calm Calm - N/A   Overcast
8:53 AM 55.0 °F 55.0 °F 100% 30.12 in 3.0 mi SE 4.6 mph - N/A   Overcast
9:00 AM 55.4 °F 55.4 °F 100% 30.13 in 3.0 mi SE 3.5 mph - N/A   Overcast
9:53 AM 55.9 °F 55.9 °F 100% 30.14 in 4.0 mi SSE 6.9 mph - N/A   Overcast
10:53 AM 57.9 °F 55.9 °F 93% 30.14 in 5.0 mi SE 8.1 mph - N/A   Overcast
11:16 AM 57.2 °F 55.4 °F 94% 30.14 in 7.0 mi SSE 9.2 mph - N/A   Overcast
11:53 AM 59.0 °F 55.0 °F 87% 30.15 in 8.0 mi South 9.2 mph - N/A   Overcast
12:53 PM 60.1 °F 55.0 °F 83% 30.13 in 9.0 mi SSE 8.1 mph - N/A   Overcast
1:20 PM 62.6 °F 55.4 °F 77% 30.12 in 10.0 mi SSW 8.1 mph - N/A   Overcast
1:53 PM 64.0 °F 55.0 °F 73% 30.11 in 10.0 mi South 8.1 mph 16.1 mph N/A   Overcast
2:33 PM 68.0 °F 55.4 °F 64% 30.09 in 10.0 mi SSE 11.5 mph 17.3 mph N/A   Scattered Clouds
2:53 PM 68.0 °F 55.0 °F 63% 30.07 in 10.0 mi South 11.5 mph 16.1 mph N/A   Scattered Clouds
3:53 PM 66.9 °F 54.0 °F 63% 30.05 in 10.0 mi SE 10.4 mph 17.3 mph N/A   Partly Cloudy
4:53 PM 66.9 °F 54.0 °F 63% 30.04 in 10.0 mi SE 11.5 mph - N/A   Mostly Cloudy
5:53 PM 64.9 °F 53.1 °F 65% 30.04 in 10.0 mi SE 9.2 mph - N/A   Partly Cloudy
6:53 PM 62.1 °F 53.1 °F 72% 30.05 in 10.0 mi ESE 5.8 mph - N/A   Clear
7:53 PM 62.1 °F 54.0 °F 75% 30.07 in 10.0 mi East 3.5 mph - N/A   Overcast
8:53 PM 62.1 °F 54.0 °F 75% 30.07 in 10.0 mi ESE 5.8 mph - N/A   Overcast
9:42 PM 62.6 °F 53.6 °F 72% 30.10 in 10.0 mi SE 3.5 mph - N/A   Overcast
9:53 PM 63.0 °F 54.0 °F 72% 30.09 in 10.0 mi SE 6.9 mph - N/A   Overcast
10:43 PM 62.6 °F 55.4 °F 77% 30.11 in 10.0 mi SE 5.8 mph - N/A   Overcast
10:53 PM 61.0 °F 55.9 °F 83% 30.09 in 10.0 mi SE 8.1 mph - 0.00 in Rain Light Rain
11:37 PM 60.8 °F 55.4 °F 82% 30.09 in 10.0 mi SSE 9.2 mph - 0.00 in Thunderstorm Overcast
11:53 PM 60.1 °F 57.0 °F 90% 30.06 in 5.0 mi SE 10.4 mph - 0.03 in Rain , Thunderstorm Light Rain